Regional Weather Roundup
Issued by NWS Sterling, VA

Home | Current Version | Previous Version | Graphics & Text | Print | Product List | Glossary On
Versions: 1 2 3 4 5 6 7 8 9 10 11 12 13 14 15 16 17 18 19 20 21 22 23 24 25 26 27 28 29 30 31 32 33 34 35 36 37 38 39 40 41 42 43 44 45 46 47 48 49 50
000
ASUS41 KLWX 230910
RWRLWX

REGIONAL WEATHER ROUNDUP
NATIONAL WEATHER SERVICE BALTIMORE MD/WASHINGTON DC
500 AM EDT SAT MAY 23 2015

Note: "FAIR" indicates few or no clouds below 12,000 feet
with no significant weather and/or obstructions to visibility.
 TC=TEMPERATURE CELSIUS

 * =Non NWS site. Station does not report precipitation (e.g. rain,
    snow, etc.), thunder, or fog.

DCZ001-MDZ009-015-VAZ040>042-051-053>054-231000-
WASHINGTON METRO

CITY           SKY/WX    TMP DP  RH WIND       PRES   REMARKS
WASHINGTON NAT CLEAR     56  27  32 NW10      30.36R
DULLES         PTCLDY    43  35  73 CALM      30.37R
ANDREWS AFB    CLEAR     53  28  39 NW7       30.35R
FT BELVOIR     CLEAR     54  28  36 NW7       30.36R
QUANTICO       CLEAR     56  28  34 N12       30.37R
COLLEGE PARK*  CLEAR     52  30  43 NW5       30.36R
LEESBURG*      CLEAR     46  32  57 W5        30.38R
MANASSAS*      CLEAR     52  30  43 NW7       30.36R
GAITHERSBURG*  CLEAR     43  30  61 CALM      30.40R

$$

MDZ006>007-011-014-231000-
BALTIMORE METRO

CITY           SKY/WX    TMP DP  RH WIND       PRES   REMARKS
BWI AIRPORT    PTCLDY    47  32  56 W3        30.34R
MD SCIENCE CTR   N/A     55  28  35 MISG      30.35R
MARTIN STATE   CLEAR     48  34  57 W3        30.36R
ANNAPOLIS      CLEAR     54  31  41 W7        30.33R
FORT MEADE*    CLEAR     43  36  75 CALM      30.38R

$$

MDZ012-015-019>023-231000-
MARYLAND EASTERN SHORE

CITY           SKY/WX    TMP DP  RH WIND       PRES   REMARKS
OCEAN CITY     CLEAR     52  40  63 NW7       30.31R
SALISBURY      CLEAR     56  33  42 N10       30.31R
BAY BRIDGE AP*   N/A    N/A N/A N/A NW8       30.34R
CAMBRIDGE*     CLEAR     59  34  38 N9        30.32R
EASTON*        CLEAR     55  38  51 N6        30.37R

$$

MDZ017>025-231000-
SOUTHERN MARYLAND

CITY           SKY/WX    TMP DP  RH WIND       PRES   REMARKS
PATUXENT RIVER CLEAR     59  29  31 N14       30.32R
ST INIGOES     CLEAR     60  31  33 VRB5      30.32R
LEONARDTOWN*   CLEAR     55  28  35 NW5       30.35R

$$

MDZ003>005-231000-
NORTH CENTRAL MARYLAND

CITY           SKY/WX    TMP DP  RH WIND       PRES   REMARKS
FREDERICK*     CLEAR     41  37  87 E3        30.40R
HAGERSTOWN APT CLEAR     46  25  43 W3        30.36R
WESTMINSTER*   CLEAR     48  27  43 CALM      30.35R

$$

MDZ501>502-231000-
WESTERN MARYLAND

CITY           SKY/WX    TMP DP  RH WIND       PRES   REMARKS
OAKLAND*       CLEAR     41  23  48 CALM      30.37R
CUMBERLAND*    CLEAR     39  32  75 CALM      30.43R

$$

VAZ025>031-231000-
SHENANDOAH VALLEY

CITY           SKY/WX    TMP DP  RH WIND       PRES   REMARKS
WINCHESTER*    CLEAR     43  32  65 CALM      30.37R
FRONT ROYAL*   FAIR      45  36  70 CALM      30.37R
LURAY*         PTSUNNY   52  39  62 CALM      30.38R
NEW MARKET*    PTSUNNY   46  39  76 CALM      30.37R
STAUNTON*      CLEAR     53  33  45 N6        30.38R
WAYNESBORO*    FAIR      52  41  67 N6        30.36R

$$

WVZ021-048>050-054>055-231000-
EASTERN WEST VIRGINIA PANHANDLE

CITY           SKY/WX    TMP DP  RH WIND       PRES   REMARKS
MARTINSBURG    CLEAR     41  30  65 S3        30.37R
PETERSBURG*    CLEAR     45  40  83 CALM      30.39S

$$

VAZ036>039-050-231000-
CENTRAL FOOTHILLS

CITY           SKY/WX    TMP DP  RH WIND       PRES   REMARKS
CHARLOTTESVILL PTCLDY    53  43  68 CALM      30.35R
CULPEPER*      PTCLDY    50  32  50 N3        30.38R
ORANGE*        PTCLDY    54  32  43 CALM      30.37R
GORDONSVILLE*  FAIR      54  31  40 NE6       30.35R
WARRENTON*     FAIR      51  36  56 CALM      30.36R

$$

VAZ055>057-231000-
NORTH AND CENTRAL PIEDMONT

CITY           SKY/WX    TMP DP  RH WIND       PRES   REMARKS
FREDERICKSBRG* CLEAR     59  32  36 N7        30.35R
STAFFORD*      CLEAR     53  30  42 N8        30.40R

$$

NCZ024-NYZ072-PAZ021-071-VAZ022-071-231000-
OTHER REGIONAL OBSERVATIONS

CITY           SKY/WX    TMP DP  RH WIND       PRES   REMARKS
NEW YORK CITY  CLEAR     51  25  36 VRB6      30.32R
PHILADELPHIA   CLEAR     53  31  42 N9        30.30R
PITTSBURGH     PTCLDY    39  32  76 CALM      30.35R
ROANOKE        CLEAR     53  46  77 N5        30.36R
RICHMOND       CLEAR     57  45  64 N9        30.33R
RALEIGH        PTCLDY    51  48  89 CALM      30.33R

$$

ANZ530>537-231000-
MARINE OBSERVATIONS

STATION/POSITION TIME  TEMP    WIND        PRES
                       AIR SEA DIR/SP/G
                 (UTC) (F)     (DEG/KT/KT) (MB)
THOMAS PT LIGHT  0900   56 64  310/ 10/ 12 1028.0R
BALT KEY BRIDGE  0800   58     310/ 14/ 17 1026.2R
LEWISETTA        0800   63 68              1025.9R
SOLOMONS ISLAND  0800      68                N/A
PINEY POINT      0800          360/ 12/ 14   N/A

$$



USA.gov is the U.S. government's official web portal to all federal, state and local government web resources and services.